| time (UTC) | temp F | wind direction | speed MPH | gust MPH | rain 1hr in | rain 24hr in | rain mn in | humidity % | barometer mb |
| 20260505212600 | 50 | 22 | 2.0 | 6.0 | 0.00 | 0.32 | 0.29 | 90 | 1010.9 |
| 20260505211831 | 50 | 339 | 2.0 | 6.0 | 0.00 | 0.33 | 0.29 | 90 | 1010.9 |
| 20260505211331 | 50 | 285 | 1.0 | 6.0 | 0.00 | 0.33 | 0.29 | 90 | 1010.9 |
| 20260505210831 | 51 | 341 | 0.0 | 6.0 | 0.00 | 0.33 | 0.29 | 90 | 1011.0 |
| 20260505210331 | 51 | 72 | 0.0 | 7.0 | 0.00 | 0.33 | 0.29 | 90 | 1010.9 |
| 20260505210058 | 51 | 313 | 2.0 | 7.0 | 0.00 | 0.33 | 0.29 | 89 | 1011.0 |
| 20260505205329 | 51 | 354 | 2.0 | 10.0 | 0.00 | 0.33 | 0.29 | 89 | 1010.9 |
| 20260505204829 | 51 | 345 | 2.0 | 10.0 | 0.00 | 0.33 | 0.29 | 89 | 1010.8 |
| 20260505204328 | 51 | 252 | 1.0 | 6.0 | 0.00 | 0.33 | 0.29 | 89 | 1011.1 |
| 20260505203831 | 51 | 263 | 3.0 | 6.0 | 0.00 | 0.33 | 0.29 | 89 | 1011.1 |
| 20260505203559 | 51 | 279 | 2.0 | 6.0 | 0.00 | 0.33 | 0.29 | 90 | 1011.0 |
| 20260505202828 | 51 | 266 | 1.0 | 6.0 | 0.00 | 0.33 | 0.29 | 90 | 1011.0 |
| 20260505202333 | 51 | 294 | 0.0 | 3.0 | 0.00 | 0.33 | 0.29 | 90 | 1011.1 |
| 20260505201832 | 51 | 303 | 1.0 | 3.0 | 0.00 | 0.33 | 0.29 | 89 | 1011.0 |
| 20260505201331 | 51 | 328 | 2.0 | 8.0 | 0.00 | 0.33 | 0.29 | 89 | 1010.9 |
| 20260505201048 | 51 | 320 | 1.0 | 8.0 | 0.00 | 0.33 | 0.29 | 89 | 1010.7 |
| 20260505200303 | 51 | 278 | 1.0 | 9.0 | 0.00 | 0.33 | 0.29 | 89 | 1011.1 |
| 20260505195801 | 51 | 16 | 2.0 | 9.0 | 0.00 | 0.34 | 0.29 | 89 | 1011.0 |
| 20260505195308 | 51 | 5 | 1.0 | 4.0 | 0.00 | 0.35 | 0.29 | 89 | 1011.0 |
| 20260505195025 | 51 | 97 | 1.0 | 3.0 | 0.00 | 0.36 | 0.29 | 89 | 1010.9 |
| 20260505194305 | 51 | 296 | 0.0 | 3.0 | 0.00 | 0.37 | 0.29 | 89 | 1010.9 |
| 20260505193801 | 51 | 286 | 0.0 | 4.0 | 0.00 | 0.39 | 0.29 | 89 | 1010.9 |
| 20260505193302 | 51 | 317 | 1.0 | 4.0 | 0.00 | 0.40 | 0.29 | 89 | 1010.9 |
| 20260505192801 | 52 | 66 | 2.0 | 2.0 | 0.00 | 0.42 | 0.29 | 89 | 1010.8 |
| 20260505192301 | 52 | 346 | 2.0 | 6.0 | 0.00 | 0.44 | 0.29 | 89 | 1010.6 |
| 20260505191801 | 52 | 311 | 1.0 | 6.0 | 0.00 | 0.46 | 0.29 | 89 | 1010.7 |
| 20260505191302 | 52 | 34 | 2.0 | 4.0 | 0.00 | 0.52 | 0.29 | 89 | 1010.5 |
| 20260505190800 | 52 | 281 | 0.0 | 4.0 | 0.00 | 0.59 | 0.29 | 89 | 1010.5 |
| 20260505190305 | 52 | 343 | 2.0 | 4.0 | 0.00 | 0.67 | 0.29 | 89 | 1010.6 |
| 20260505185803 | 52 | 341 | 1.0 | 4.0 | 0.00 | 0.70 | 0.29 | 89 | 1010.4 |
| 20260505185305 | 52 | 57 | 3.0 | 4.0 | 0.00 | 0.76 | 0.29 | 89 | 1010.5 |
| 20260505185256 | 52 | 100 | 1.0 | 3.0 | 0.00 | 0.76 | 0.29 | 89 | 1010.6 |
| 20260505184258 | 52 | 355 | 1.0 | 3.0 | 0.00 | 0.77 | 0.29 | 89 | 1010.7 |
| 20260505183755 | 52 | 283 | 0.0 | 3.0 | 0.00 | 0.77 | 0.29 | 89 | 1010.4 |
| 20260505183257 | 52 | 351 | 1.0 | 3.0 | 0.00 | 0.77 | 0.29 | 89 | 1010.5 |
| 20260505182759 | 52 | 296 | 1.0 | 3.0 | 0.00 | 0.77 | 0.29 | 89 | 1010.5 |
| 20260505182256 | 52 | 321 | 1.0 | 3.0 | 0.00 | 0.77 | 0.29 | 88 | 1010.5 |
| 20260505181756 | 52 | 343 | 0.0 | 3.0 | 0.00 | 0.77 | 0.29 | 88 | 1010.3 |
| 20260505181520 | 52 | 315 | 1.0 | 3.0 | 0.00 | 0.77 | 0.29 | 89 | 1010.6 |
| 20260505180756 | 52 | 338 | 1.0 | 3.0 | 0.00 | 0.77 | 0.29 | 88 | 1010.4 |
| 20260505180257 | 52 | 321 | 3.0 | 3.0 | 0.00 | 0.77 | 0.29 | 88 | 1010.3 |
| 20260505175756 | 52 | 305 | 1.0 | 3.0 | 0.00 | 0.77 | 0.29 | 89 | 1010.3 |
| 20260505175530 | 52 | 347 | 2.0 | 6.0 | 0.00 | 0.77 | 0.29 | 89 | 1010.5 |
| 20260505174748 | 52 | 323 | 1.0 | 6.0 | 0.00 | 0.77 | 0.29 | 89 | 1010.6 |
| 20260505174230 | 52 | 4 | 3.0 | 4.0 | 0.00 | 0.77 | 0.29 | 89 | 1010.3 |
| 20260505173729 | 52 | 18 | 2.0 | 3.0 | 0.00 | 0.77 | 0.29 | 89 | 1010.5 |
| 20260505173230 | 52 | 35 | 2.0 | 3.0 | 0.00 | 0.77 | 0.29 | 89 | 1010.5 |
| 20260505172729 | 52 | 3 | 2.0 | 3.0 | 0.00 | 0.77 | 0.29 | 89 | 1010.5 |
| 20260505172457 | 52 | 309 | 2.0 | 2.0 | 0.00 | 0.77 | 0.29 | 89 | 1010.4 |
| 20260505171728 | 52 | 299 | 1.0 | 3.0 | 0.00 | 0.77 | 0.29 | 89 | 1010.6 |
| 20260505171231 | 52 | 269 | 0.0 | 3.0 | 0.00 | 0.77 | 0.29 | 90 | 1010.4 |
| 20260505170729 | 52 | 26 | 2.0 | 3.0 | 0.00 | 0.77 | 0.29 | 89 | 1010.4 |
| 20260505170230 | 52 | 354 | 1.0 | 6.0 | 0.00 | 0.77 | 0.29 | 89 | 1010.6 |
| 20260505165729 | 52 | 237 | 1.0 | 6.0 | 0.00 | 0.77 | 0.29 | 89 | 1010.5 |
| 20260505165230 | 52 | 40 | 3.0 | 4.0 | 0.00 | 0.77 | 0.29 | 89 | 1010.6 |
| 20260505164728 | 52 | 1 | 2.0 | 6.0 | 0.00 | 0.77 | 0.29 | 89 | 1010.6 |
| 20260505164231 | 52 | 327 | 0.0 | 6.0 | 0.00 | 0.77 | 0.29 | 89 | 1010.8 |
| 20260505163729 | 53 | 346 | 2.0 | 6.0 | 0.00 | 0.77 | 0.29 | 89 | 1010.7 |
| 20260505163231 | 53 | 30 | 2.0 | 6.0 | 0.00 | 0.78 | 0.29 | 89 | 1010.7 |
| 20260505162952 | 53 | 355 | 2.0 | 4.0 | 0.00 | 0.78 | 0.29 | 89 | 1010.8 |
| 20260505162225 | 53 | 233 | 1.0 | 4.0 | 0.00 | 0.78 | 0.29 | 89 | 1010.7 |
| 20260505161956 | 53 | 317 | 1.0 | 6.0 | 0.00 | 0.79 | 0.29 | 89 | 1010.7 |
| 20260505161224 | 53 | 50 | 3.0 | 6.0 | 0.00 | 0.79 | 0.29 | 89 | 1010.6 |
| 20260505160723 | 53 | 288 | 0.0 | 6.0 | 0.00 | 0.79 | 0.29 | 89 | 1010.9 |
| 20260505160224 | 53 | 311 | 3.0 | 4.0 | 0.00 | 0.79 | 0.29 | 89 | 1010.9 |
| 20260505153224 | 53 | 252 | 1.0 | 7.0 | 0.00 | 0.79 | 0.29 | 88 | 1010.8 |
| 20260505152724 | 53 | 22 | 2.0 | 6.0 | 0.00 | 0.79 | 0.29 | 89 | 1010.9 |
| 20260505152225 | 53 | 311 | 2.0 | 6.0 | 0.00 | 0.79 | 0.29 | 89 | 1010.9 |
| 20260505151949 | 53 | 113 | 1.0 | 6.0 | 0.00 | 0.79 | 0.29 | 89 | 1011.0 |
| 20260505151224 | 53 | 255 | 1.0 | 4.0 | 0.00 | 0.79 | 0.29 | 90 | 1011.2 |
| 20260505150723 | 53 | 307 | 0.0 | 6.0 | 0.00 | 0.79 | 0.29 | 90 | 1011.0 |
| 20260505150223 | 53 | 349 | 3.0 | 7.0 | 0.00 | 0.79 | 0.29 | 90 | 1011.0 |
| 20260505140442 | 53 | 303 | 0.0 | 7.0 | 0.00 | 0.79 | 0.29 | 90 | 1011.4 |
| 20260505130222 | 53 | 312 | 2.0 | 6.0 | 0.00 | 0.79 | 0.29 | 90 | 1011.8 |
| 20260505124720 | 52 | 49 | 3.0 | 6.0 | 0.00 | 0.79 | 0.29 | 91 | 1011.7 |
| 20260505124223 | 52 | 61 | 2.0 | 6.0 | 0.00 | 0.79 | 0.29 | 92 | 1011.7 |
| 20260505123714 | 52 | 53 | 4.0 | 6.0 | 0.00 | 0.79 | 0.29 | 93 | 1012.0 |
| 20260505123204 | 51 | 285 | 0.0 | 8.0 | 0.00 | 0.79 | 0.29 | 93 | 1011.9 |
| 20260505122702 | 51 | 286 | 0.0 | 8.0 | 0.00 | 0.79 | 0.29 | 93 | 1011.9 |
| 20260505122204 | 51 | 19 | 2.0 | 6.0 | 0.00 | 0.79 | 0.29 | 94 | 1011.9 |
| 20260505121648 | 51 | 277 | 2.0 | 7.0 | 0.00 | 0.79 | 0.29 | 94 | 1012.0 |
| 20260505121148 | 51 | 58 | 4.0 | 8.0 | 0.00 | 0.79 | 0.29 | 94 | 1012.0 |
| 20260505120647 | 51 | 347 | 3.0 | 8.0 | 0.00 | 0.79 | 0.29 | 94 | 1012.3 |
| 20260505120415 | 51 | 270 | 0.0 | 6.0 | 0.00 | 0.79 | 0.29 | 94 | 1012.2 |
| 20260505115648 | 51 | 340 | 2.0 | 6.0 | 0.00 | 0.79 | 0.29 | 94 | 1012.1 |
| 20260505115147 | 50 | 319 | 2.0 | 6.0 | 0.00 | 0.79 | 0.29 | 95 | 1012.0 |
| 20260505114648 | 50 | 330 | 2.0 | 7.0 | 0.00 | 0.79 | 0.29 | 95 | 1012.1 |
| 20260505114153 | 50 | 33 | 5.0 | 7.0 | 0.00 | 0.79 | 0.29 | 95 | 1012.2 |
| 20260505113648 | 50 | 255 | 1.0 | 6.0 | 0.00 | 0.79 | 0.29 | 95 | 1012.0 |
| 20260505113146 | 50 | 1 | 0.0 | 3.0 | 0.00 | 0.79 | 0.29 | 96 | 1012.2 |
| 20260505112648 | 50 | 41 | 2.0 | 6.0 | 0.00 | 0.79 | 0.29 | 96 | 1012.2 |
| 20260505112415 | 49 | 5 | 4.0 | 6.0 | 0.00 | 0.79 | 0.29 | 97 | 1012.4 |
| 20260505111907 | 49 | 269 | 3.0 | 6.0 | 0.00 | 0.79 | 0.29 | 97 | 1012.4 |
| 20260505111149 | 49 | 308 | 2.0 | 6.0 | 0.00 | 0.79 | 0.29 | 97 | 1012.3 |
| 20260505110858 | 49 | 242 | 1.0 | 7.0 | 0.00 | 0.79 | 0.29 | 97 | 1012.4 |
| 20260505110129 | 49 | 302 | 1.0 | 7.0 | 0.00 | 0.79 | 0.29 | 98 | 1012.6 |
| 20260505102130 | 49 | 337 | 2.0 | 6.0 | 0.01 | 0.79 | 0.29 | 99 | 1012.6 |
| 20260505101631 | 49 | 288 | 3.0 | 7.0 | 0.01 | 0.79 | 0.29 | 99 | 1012.7 |
| 20260505101116 | 49 | 256 | 0.0 | 7.0 | 0.01 | 0.79 | 0.29 | 99 | 1012.6 |
| 20260505100617 | 49 | 216 | 3.0 | 6.0 | 0.01 | 0.79 | 0.29 | 99 | 1012.5 |
| 20260505100114 | 49 | 305 | 1.0 | 6.0 | 0.01 | 0.79 | 0.29 | 99 | 1012.5 |
| 20260505095615 | 49 | 318 | 1.0 | 7.0 | 0.01 | 0.79 | 0.29 | 99 | 1012.4 |
| 20260505095338 | 49 | 1 | 2.0 | 7.0 | 0.01 | 0.79 | 0.29 | 99 | 1012.5 |
| 20260505094614 | 49 | 18 | 4.0 | 8.0 | 0.01 | 0.79 | 0.29 | 99 | 1012.4 |
| 20260505094115 | 49 | 230 | 2.0 | 8.0 | 0.01 | 0.79 | 0.29 | 99 | 1012.5 |
| 20260505093615 | 49 | 62 | 2.0 | 7.0 | 0.01 | 0.79 | 0.29 | 99 | 1012.5 |
| 20260505093350 | 49 | 33 | 4.0 | 7.0 | 0.01 | 0.79 | 0.29 | 99 | 1012.5 |
| 20260505092616 | 49 | 270 | 0.0 | 6.0 | 0.00 | 0.78 | 0.28 | 99 | 1012.6 |
| 20260505092116 | 49 | 296 | 1.0 | 4.0 | 0.00 | 0.78 | 0.28 | 99 | 1012.6 |
| 20260505091616 | 49 | 270 | 3.0 | 6.0 | 0.00 | 0.78 | 0.28 | 99 | 1012.4 |
| 20260505091115 | 49 | 289 | 2.0 | 6.0 | 0.00 | 0.78 | 0.28 | 99 | 1012.6 |
| 20260505090843 | 48 | 16 | 2.0 | 7.0 | 0.00 | 0.78 | 0.28 | 98 | 1012.4 |
| 20260505090116 | 48 | 315 | 1.0 | 7.0 | 0.00 | 0.78 | 0.28 | 98 | 1012.6 |
| 20260505085616 | 48 | 40 | 1.0 | 6.0 | 0.00 | 0.78 | 0.28 | 98 | 1012.5 |
| 20260505085116 | 48 | 251 | 1.0 | 6.0 | 0.00 | 0.78 | 0.28 | 98 | 1012.5 |
| 20260505084614 | 48 | 322 | 1.0 | 6.0 | 0.00 | 0.78 | 0.28 | 98 | 1012.7 |
| 20260505084341 | 48 | 28 | 4.0 | 6.0 | 0.00 | 0.78 | 0.28 | 98 | 1012.8 |
| 20260505083614 | 48 | 328 | 2.0 | 6.0 | 0.00 | 0.78 | 0.28 | 97 | 1012.4 |
| 20260505083345 | 48 | 343 | 1.0 | 6.0 | 0.00 | 0.78 | 0.28 | 97 | 1012.5 |
| 20260505082618 | 48 | 346 | 2.0 | 6.0 | 0.00 | 0.78 | 0.28 | 97 | 1012.6 |
| 20260505082117 | 48 | 38 | 4.0 | 7.0 | 0.00 | 0.78 | 0.28 | 97 | 1012.6 |
| 20260505081614 | 48 | 321 | 2.0 | 7.0 | 0.00 | 0.78 | 0.28 | 98 | 1012.5 |
| 20260505081112 | 48 | 325 | 5.0 | 8.0 | 0.00 | 0.78 | 0.28 | 98 | 1012.7 |
| 20260505080613 | 48 | 269 | 2.0 | 8.0 | 0.00 | 0.78 | 0.28 | 98 | 1012.6 |
| 20260505080113 | 48 | 247 | 1.0 | 6.0 | 0.00 | 0.78 | 0.28 | 98 | 1012.5 |
| 20260505075612 | 48 | 349 | 1.0 | 6.0 | 0.00 | 0.78 | 0.28 | 98 | 1012.7 |
| 20260505075114 | 48 | 337 | 2.0 | 6.0 | 0.00 | 0.78 | 0.28 | 98 | 1012.5 |
| 20260505074612 | 48 | 295 | 0.0 | 8.0 | 0.00 | 0.78 | 0.28 | 99 | 1012.4 |
| 20260505074113 | 48 | 162 | 1.0 | 8.0 | 0.00 | 0.78 | 0.28 | 99 | 1012.6 |
| 20260505073612 | 48 | 300 | 1.0 | 8.0 | 0.00 | 0.78 | 0.28 | 99 | 1012.5 |
| 20260505073113 | 48 | 6 | 2.0 | 8.0 | 0.00 | 0.78 | 0.28 | 99 | 1012.6 |
| 20260505072829 | 48 | 269 | 0.0 | 4.0 | 0.00 | 0.78 | 0.28 | 99 | 1012.7 |
| 20260505072112 | 48 | 293 | 2.0 | 4.0 | 0.00 | 0.78 | 0.28 | 99 | 1012.6 |
| 20260505071839 | 48 | 306 | 1.0 | 4.0 | 0.00 | 0.78 | 0.28 | 99 | 1012.5 |
| 20260505071114 | 48 | 347 | 2.0 | 4.0 | 0.00 | 0.78 | 0.28 | 99 | 1012.5 |
| 20260505070612 | 48 | 296 | 2.0 | 4.0 | 0.00 | 0.78 | 0.28 | 99 | 1012.7 |
| 20260505070345 | 48 | 287 | 2.0 | 4.0 | 0.00 | 0.78 | 0.28 | 99 | 1012.6 |
| 20260505065103 | 48 | 274 | 2.0 | 4.0 | 0.00 | 0.78 | 0.28 | 99 | 1012.7 |
| 20260505064834 | 48 | 327 | 2.0 | 4.0 | 0.00 | 0.78 | 0.28 | 99 | 1012.7 |
| 20260505064102 | 48 | 283 | 1.0 | 6.0 | 0.00 | 0.78 | 0.28 | 99 | 1012.7 |
| 20260505063601 | 48 | 222 | 3.0 | 6.0 | 0.00 | 0.78 | 0.28 | 99 | 1012.7 |
| 20260505063101 | 49 | 296 | 0.0 | 3.0 | 0.00 | 0.78 | 0.28 | 99 | 1012.6 |
| 20260505062600 | 49 | 304 | 1.0 | 4.0 | 0.00 | 0.78 | 0.28 | 99 | 1012.7 |
| 20260505062102 | 49 | 342 | 2.0 | 4.0 | 0.00 | 0.78 | 0.28 | 99 | 1012.6 |
| 20260505061837 | 49 | 2 | 2.0 | 7.0 | 0.00 | 0.78 | 0.28 | 99 | 1012.8 |
| 20260505061101 | 49 | 137 | 2.0 | 9.0 | 0.00 | 0.78 | 0.28 | 99 | 1012.6 |
| 20260505060602 | 49 | 289 | 2.0 | 9.0 | 0.00 | 0.78 | 0.28 | 99 | 1012.6 |
| 20260505055600 | 49 | 347 | 1.0 | 7.0 | 0.00 | 0.78 | 0.28 | 99 | 1012.8 |
| 20260505055341 | 49 | 288 | 1.0 | 4.0 | 0.00 | 0.78 | 0.28 | 99 | 1012.6 |
| 20260505055103 | 49 | 218 | 2.0 | 6.0 | 0.00 | 0.78 | 0.28 | 99 | 1012.6 |
| 20260505054108 | 49 | 250 | 0.0 | 3.0 | 0.00 | 0.78 | 0.28 | 99 | 1012.7 |
| 20260505053602 | 49 | 347 | 2.0 | 4.0 | 0.00 | 0.78 | 0.28 | 99 | 1012.6 |
| 20260505053328 | 49 | 345 | 1.0 | 4.0 | 0.00 | 0.78 | 0.28 | 99 | 1012.6 |
| 20260505052601 | 49 | 249 | 1.0 | 6.0 | 0.00 | 0.78 | 0.28 | 99 | 1012.8 |
| 20260505052101 | 49 | 333 | 2.0 | 6.0 | 0.00 | 0.78 | 0.28 | 99 | 1012.6 |
| 20260505051600 | 49 | 328 | 1.0 | 4.0 | 0.01 | 0.78 | 0.28 | 99 | 1012.6 |
| 20260505051101 | 49 | 314 | 2.0 | 4.0 | 0.02 | 0.78 | 0.28 | 99 | 1012.5 |
| 20260505050601 | 49 | 334 | 0.0 | 4.0 | 0.03 | 0.78 | 0.28 | 99 | 1012.4 |
| 20260505041538 | 50 | 272 | 0.0 | 6.0 | 0.02 | 0.77 | 0.27 | 99 | 1012.3 |
| 20260505041036 | 50 | 273 | 1.0 | 6.0 | 0.00 | 0.75 | 0.25 | 99 | 1012.1 |
| 20260505040536 | 50 | 267 | 2.0 | 6.0 | 0.00 | 0.75 | 0.25 | 99 | 1012.2 |
| 20260505040036 | 50 | 343 | 2.0 | 3.0 | 0.00 | 0.75 | 0.25 | 99 | 1012.4 |
| 20260505035757 | 50 | 248 | 0.0 | 3.0 | 0.00 | 0.75 | 0.25 | 99 | 1012.3 |
| 20260505035036 | 50 | 276 | 2.0 | 6.0 | 0.00 | 0.75 | 0.25 | 99 | 1012.3 |
| 20260505034534 | 50 | 268 | 2.0 | 6.0 | 0.00 | 0.75 | 0.25 | 99 | 1012.6 |
| 20260505034035 | 50 | 15 | 2.0 | 3.0 | 0.00 | 0.75 | 0.25 | 99 | 1012.5 |
| 20260505033535 | 51 | 344 | 1.0 | 7.0 | 0.00 | 0.75 | 0.25 | 99 | 1012.3 |
| 20260505033306 | 51 | 0 | 2.0 | 7.0 | 0.00 | 0.75 | 0.25 | 99 | 1012.4 |
| 20260505032536 | 51 | 347 | 2.0 | 4.0 | 0.00 | 0.75 | 0.25 | 99 | 1012.3 |
| 20260505032036 | 51 | 253 | 1.0 | 6.0 | 0.00 | 0.75 | 0.25 | 99 | 1012.5 |
| 20260505031536 | 51 | 283 | 2.0 | 6.0 | 0.00 | 0.75 | 0.25 | 99 | 1012.3 |
| 20260505031035 | 51 | 326 | 1.0 | 6.0 | 0.00 | 0.75 | 0.25 | 99 | 1012.3 |
| 20260505030530 | 51 | 305 | 1.0 | 7.0 | 0.00 | 0.75 | 0.25 | 99 | 1012.5 |
| 20260505030302 | 51 | 275 | 0.0 | 7.0 | 0.00 | 0.75 | 0.25 | 99 | 1012.6 |
| 20260505025759 | 51 | 326 | 2.0 | 8.0 | 0.00 | 0.75 | 0.25 | 99 | 1012.4 |
| 20260505025030 | 51 | 287 | 2.0 | 8.0 | 0.00 | 0.75 | 0.25 | 99 | 1012.6 |
| 20260505024529 | 51 | 25 | 4.0 | 9.0 | 0.00 | 0.75 | 0.25 | 99 | 1012.5 |
| 20260505024028 | 51 | 345 | 2.0 | 9.0 | 0.00 | 0.75 | 0.25 | 99 | 1012.6 |
| 20260505023529 | 51 | 13 | 4.0 | 7.0 | 0.00 | 0.75 | 0.25 | 99 | 1012.5 |
| 20260505023035 | 51 | 7 | 2.0 | 7.0 | 0.00 | 0.75 | 0.25 | 99 | 1012.6 |
| 20260505022529 | 51 | 12 | 2.0 | 7.0 | 0.00 | 0.75 | 0.25 | 99 | 1012.5 |
| 20260505022253 | 52 | 350 | 4.0 | 7.0 | 0.00 | 0.75 | 0.25 | 99 | 1012.6 |
| 20260505021529 | 52 | 281 | 2.0 | 7.0 | 0.00 | 0.75 | 0.25 | 99 | 1012.4 |
| 20260505021028 | 52 | 312 | 1.0 | 7.0 | 0.00 | 0.75 | 0.25 | 99 | 1012.5 |
| 20260505020753 | 52 | 272 | 2.0 | 6.0 | 0.00 | 0.75 | 0.25 | 99 | 1012.3 |
| 20260505020029 | 52 | 339 | 2.0 | 7.0 | 0.00 | 0.75 | 0.25 | 99 | 1012.5 |
| 20260505015751 | 52 | 0 | 1.0 | 7.0 | 0.00 | 0.75 | 0.25 | 99 | 1012.3 |
| 20260505015520 | 52 | 329 | 2.0 | 7.0 | 0.00 | 0.75 | 0.25 | 99 | 1012.4 |
| 20260505014529 | 52 | 1 | 3.0 | 7.0 | 0.00 | 0.75 | 0.25 | 99 | 1012.7 |
| 20260505014028 | 52 | 276 | 2.0 | 6.0 | 0.00 | 0.75 | 0.25 | 99 | 1012.6 |
| 20260505013529 | 53 | 269 | 2.0 | 6.0 | 0.00 | 0.75 | 0.25 | 99 | 1012.4 |
| 20260505013029 | 53 | 25 | 4.0 | 9.0 | 0.00 | 0.75 | 0.25 | 99 | 1012.5 |
| 20260505012756 | 53 | 266 | 2.0 | 9.0 | 0.00 | 0.75 | 0.25 | 99 | 1012.6 |
| 20260505012028 | 53 | 260 | 1.0 | 8.0 | 0.00 | 0.75 | 0.25 | 99 | 1012.7 |
| 20260505011529 | 53 | 266 | 1.0 | 9.0 | 0.00 | 0.75 | 0.25 | 99 | 1012.8 |
| 20260505011030 | 53 | 270 | 1.0 | 9.0 | 0.00 | 0.75 | 0.25 | 99 | 1012.6 |
| 20260505010803 | 53 | 358 | 1.0 | 7.0 | 0.00 | 0.75 | 0.25 | 99 | 1012.8 |
| 20260505010030 | 53 | 248 | 2.0 | 6.0 | 0.00 | 0.75 | 0.25 | 99 | 1012.8 |
| 20260505005803 | 54 | 346 | 1.0 | 6.0 | 0.00 | 0.75 | 0.25 | 99 | 1012.8 |
| 20260505005303 | 54 | 279 | 4.0 | 6.0 | 0.00 | 0.75 | 0.25 | 99 | 1012.7 |
| 20260505004804 | 54 | 341 | 3.0 | 6.0 | 0.01 | 0.75 | 0.25 | 99 | 1012.5 |
| 20260505004527 | 55 | 250 | 2.0 | 6.0 | 0.01 | 0.75 | 0.25 | 99 | 1012.8 |
| 20260505003530 | 55 | 259 | 0.0 | 6.0 | 0.01 | 0.75 | 0.25 | 99 | 1012.9 |
| 20260505003021 | 55 | 9 | 1.0 | 6.0 | 0.01 | 0.75 | 0.25 | 99 | 1012.6 |
| 20260505002527 | 55 | 264 | 2.0 | 6.0 | 0.01 | 0.75 | 0.25 | 99 | 1012.8 |
| 20260505002018 | 55 | 261 | 2.0 | 4.0 | 0.02 | 0.75 | 0.25 | 99 | 1012.6 |
| 20260505001509 | 55 | 254 | 0.0 | 6.0 | 0.02 | 0.75 | 0.25 | 99 | 1012.8 |
| 20260505001002 | 55 | 4 | 1.0 | 6.0 | 0.03 | 0.75 | 0.25 | 99 | 1012.9 |
| 20260505000502 | 56 | 354 | 1.0 | 3.0 | 0.03 | 0.75 | 0.25 | 99 | 1012.7 |
| 20260505000226 | 56 | 283 | 1.0 | 3.0 | 0.03 | 0.75 | 0.25 | 99 | 1012.9 |
| 20260504235501 | 56 | 18 | 2.0 | 4.0 | 0.04 | 0.75 | 0.25 | 99 | 1012.7 |
| 20260504235001 | 56 | 333 | 0.0 | 6.0 | 0.03 | 0.74 | 0.24 | 99 | 1012.7 |
| 20260504234502 | 56 | 319 | 0.0 | 6.0 | 0.04 | 0.74 | 0.24 | 99 | 1013.0 |
| 20260504234226 | 56 | 273 | 0.0 | 2.0 | 0.06 | 0.74 | 0.24 | 99 | 1013.0 |
| 20260504233500 | 56 | 280 | 1.0 | 3.0 | 0.07 | 0.74 | 0.24 | 99 | 1013.1 |
| 20260504233001 | 56 | 290 | 2.0 | 3.0 | 0.09 | 0.74 | 0.24 | 99 | 1012.9 |
| 20260504232951 | 56 | 320 | 1.0 | 3.0 | 0.11 | 0.74 | 0.23 | 99 | 1013.0 |
| 20260504232000 | 56 | 352 | 2.0 | 3.0 | 0.12 | 0.73 | 0.23 | 99 | 1013.1 |
| 20260504231502 | 56 | 275 | 0.0 | 2.0 | 0.15 | 0.73 | 0.23 | 99 | 1013.0 |
| 20260504231003 | 56 | 273 | 1.0 | 2.0 | 0.21 | 0.72 | 0.22 | 99 | 1013.1 |
| 20260504230502 | 57 | 313 | 0.0 | 0.0 | 0.22 | 0.72 | 0.22 | 99 | 1013.3 |
| 20260504230002 | 57 | 313 | 0.0 | 0.0 | 0.22 | 0.72 | 0.22 | 99 | 1013.1 |
| 20260504225502 | 57 | 313 | 0.0 | 1.0 | 0.21 | 0.71 | 0.21 | 99 | 1013.1 |
| 20260504225001 | 57 | 313 | 0.0 | 1.0 | 0.21 | 0.71 | 0.21 | 99 | 1013.2 |
| 20260504224735 | 57 | 313 | 0.0 | 1.0 | 0.20 | 0.70 | 0.20 | 99 | 1013.3 |
| 20260504224234 | 57 | 314 | 0.0 | 1.0 | 0.18 | 0.68 | 0.18 | 99 | 1013.4 |
| 20260504223458 | 57 | 314 | 1.0 | 2.0 | 0.18 | 0.67 | 0.16 | 99 | 1013.2 |
| 20260504222956 | 57 | 1 | 0.0 | 2.0 | 0.17 | 0.65 | 0.15 | 99 | 1013.4 |
| 20260504222458 | 57 | 278 | 0.0 | 2.0 | 0.16 | 0.63 | 0.13 | 99 | 1013.4 |
| 20260504222233 | 57 | 283 | 0.0 | 2.0 | 0.15 | 0.61 | 0.10 | 99 | 1013.4 |
| 20260504221456 | 57 | 281 | 1.0 | 2.0 | 0.11 | 0.57 | 0.05 | 99 | 1013.6 |
| 20260504220957 | 57 | 313 | 0.0 | 2.0 | 0.05 | 0.51 | 0.01 | 99 | 1013.6 |
| 20260504220457 | 57 | 313 | 0.0 | 2.0 | 0.04 | 0.50 | 0.00 | 99 | 1013.7 |
| 20260504215957 | 57 | 300 | 0.0 | 1.0 | 0.04 | 0.50 | 0.50 | 99 | 1013.8 |
| 20260504215457 | 57 | 296 | 0.0 | 1.0 | 0.04 | 0.50 | 0.50 | 99 | 1013.7 |
| 20260504214956 | 57 | 296 | 0.0 | 1.0 | 0.04 | 0.50 | 0.50 | 99 | 1013.7 |
| 20260504214456 | 57 | 296 | 0.0 | 1.0 | 0.04 | 0.50 | 0.50 | 99 | 1013.8 |
| 20260504214003 | 57 | 296 | 0.0 | 1.0 | 0.04 | 0.50 | 0.50 | 99 | 1013.9 |
| 20260504213450 | 57 | 296 | 0.0 | 0.0 | 0.03 | 0.49 | 0.49 | 99 | 1013.9 |
| 20260504212945 | 58 | 296 | 0.0 | 1.0 | 0.02 | 0.48 | 0.47 | 99 | 1013.8 |